パンスターズ彗星

P/2025 D3 ( PanSTARRS )

English version
Home page
Updated on August 10, 2025

---------------------------------------------------------------------

・ プロフィール

発見日 2025年2月22日
発見光度 21.6等
発見者 Pan-STARRS 2 telescope (Haleakala)

・ 軌道要素

Epoch 2025 May 5.0 TT = JDT 2460800.5
T 2024 July 25.71577 TT                                 Pike
q   2.9654741            (2000.0)            P               Q
n   0.12474613     Peri.  294.46495     -0.51506078     -0.85693501
a   3.9669008      Node   186.63598     +0.83453403     -0.49618638
e   0.2524456      Incl.    9.64403     +0.19561528     -0.13950439
P   7.90
From 53 observations 2024 Dec. 30-2025 Apr. 2, mean residual 0".2.

・ 光度変化

        m1 = 14.0 + 5 logΔ + 10.0 log r

---------------------------------------------------------------------

軌道要素はM.P.E.C. 2025-O159に掲載されたものです。
光度グラフはComet for Windowsで作成したものです。

---------------------------------------------------------------------

Copyright(C) Seiichi Yoshida (comet@aerith.net). All rights reserved.